Location: Bakov nad Jizerou
(50.4784°N, 14.9394°E)
Time: 07:09:40
(UTC+00:00)

GEOS 3 Rocket - Pass Details

Date: 16 June 2021
Orbit: 779 x 840 km, 115.0° (Epoch: 28 July)

Event Time Altitude Azimuth Distance (km) Brightness Sun altitude
Exits shadow 20:54:58 11° 124° (SE) 2,370 5.5 -11.1°
Maximum altitude 21:00:04 69° 43° (NE) 895 3.9 -11.4°
Drops below altitude 10° 21:05:22 10° 321° (NW) 2,449 7.5 -11.8°
Sets 21:07:41 0° 319° (NW) 3,380 8.5 -12.0°
